EN

Hourly Weather Ababuj

Today, 12 June, Saturday

Time Temperature Precipitation Wind Pressure Humidity
00:00 +13°C° 0 mm 1 mps 651 mmHg 81%
01:00 +13°C° 0 mm 1 mps 650 mmHg 78%
02:00 +13°C° 0 mm 1 mps 650 mmHg 76%
03:00 +13°C° 0 mm 1 mps 650 mmHg 74%
04:00 +14°C° 0 mm 1 mps 650 mmHg 72%
05:00 +14°C° 0 mm 1 mps 651 mmHg 70%
06:00 +15°C° 0 mm 1 mps 651 mmHg 68%
07:00 +17°C° 0 mm 2 mps 652 mmHg 61%
08:00 +18°C° 0 mm 2 mps 652 mmHg 53%
09:00 +20°C° 0 mm 3 mps 653 mmHg 45%
10:00 +21°C° 0 mm 3 mps 653 mmHg 42%
11:00 +23°C° 0 mm 4 mps 654 mmHg 39%
12:00 +25°C° 0 mm 4 mps 654 mmHg 36%
13:00 +25°C° 0 mm 4 mps 654 mmHg 36%
14:00 +25°C° 0 mm 5 mps 654 mmHg 36%
15:00 +25°C° 0 mm 5 mps 654 mmHg 37%
16:00 +23°C° 0 mm 5 mps 653 mmHg 39%
17:00 +23°C° 0 mm 4 mps 653 mmHg 41%
18:00 +22°C° 0 mm 4 mps 653 mmHg 44%
19:00 +20°C° 0 mm 3 mps 653 mmHg 49%
20:00 +18°C° 0 mm 3 mps 653 mmHg 54%
21:00 +17°C° 0 mm 2 mps 653 mmHg 59%
22:00 +16°C° 0 mm 2 mps 653 mmHg 59%
23:00 +16°C° 0 mm 2 mps 653 mmHg 58%

Tomorrow, 13 June, Sunday

Time Temperature Precipitation Wind Pressure Humidity
00:00 +15°C° 0 mm 2 mps 653 mmHg 58%
01:00 +15°C° 0 mm 2 mps 652 mmHg 57%
02:00 +15°C° 0 mm 1 mps 652 mmHg 56%
03:00 +15°C° 0 mm 1 mps 652 mmHg 54%
04:00 +16°C° 0 mm 1 mps 652 mmHg 53%
05:00 +18°C° 0 mm 1 mps 653 mmHg 51%
06:00 +19°C° 0 mm 1 mps 653 mmHg 49%
07:00 +20°C° 0 mm 1 mps 654 mmHg 43%
08:00 +22°C° 0 mm 1 mps 654 mmHg 38%
09:00 +23°C° 0 mm 2 mps 655 mmHg 32%
10:00 +25°C° 0 mm 2 mps 655 mmHg 31%
11:00 +26°C° 0 mm 3 mps 655 mmHg 29%
12:00 +27°C° 0 mm 4 mps 655 mmHg 28%
13:00 +27°C° 0 mm 4 mps 655 mmHg 28%
14:00 +27°C° 0 mm 4 mps 655 mmHg 28%
15:00 +27°C° 0 mm 3 mps 654 mmHg 28%
16:00 +26°C° 0 mm 3 mps 654 mmHg 31%
17:00 +26°C° 0 mm 3 mps 654 mmHg 33%
18:00 +25°C° 0 mm 3 mps 654 mmHg 36%
19:00 +22°C° 0 mm 3 mps 653 mmHg 40%
20:00 +20°C° 0 mm 3 mps 653 mmHg 44%
21:00 +18°C° 0 mm 2 mps 653 mmHg 47%
22:00 +18°C° 0 mm 2 mps 653 mmHg 46%
23:00 +18°C° 0 mm 2 mps 652 mmHg 44%

Day after tomorrow, 14 June, Monday

Time Temperature Precipitation Wind Pressure Humidity
00:00 +17°C° 0 mm 2 mps 652 mmHg 43%
01:00 +17°C° 0 mm 2 mps 652 mmHg 42%
02:00 +17°C° 0 mm 2 mps 652 mmHg 41%
03:00 +16°C° 0 mm 1 mps 651 mmHg 41%
04:00 +18°C° 0 mm 1 mps 652 mmHg 41%
05:00 +19°C° 0 mm 1 mps 652 mmHg 41%
06:00 +18°C° 0 mm 0 mps 653 mmHg 42%
07:00 +22°C° 0 mm 1 mps 653 mmHg 37%
08:00 +24°C° 0 mm 1 mps 654 mmHg 32%
09:00 +25°C° 0 mm 1 mps 654 mmHg 27%
10:00 +26°C° 0 mm 2 mps 654 mmHg 26%
11:00 +28°C° 0 mm 3 mps 654 mmHg 25%
12:00 +29°C° 0 mm 3 mps 654 mmHg 24%
13:00 +29°C° 0 mm 4 mps 654 mmHg 24%
14:00 +29°C° 0 mm 4 mps 654 mmHg 23%
15:00 +30°C° 0 mm 4 mps 653 mmHg 22%
16:00 +29°C° 0 mm 4 mps 653 mmHg 25%
17:00 +28°C° 0 mm 4 mps 653 mmHg 28%
18:00 +27°C° 0 mm 4 mps 652 mmHg 31%
19:00 +25°C° 0 mm 3 mps 652 mmHg 34%
20:00 +22°C° 0 mm 3 mps 652 mmHg 38%
21:00 +20°C° 0 mm 2 mps 652 mmHg 41%
22:00 +20°C° 0 mm 1 mps 652 mmHg 43%
23:00 +20°C° 0 mm 1 mps 651 mmHg 44%

15 June, Tuesday

Time Temperature Precipitation Wind Pressure Humidity
00:00 +19°C° 0 mm 1 mps 651 mmHg 46%
01:00 +19°C° 0 mm 1 mps 651 mmHg 48%
02:00 +18°C° 0 mm 1 mps 651 mmHg 50%
03:00 +18°C° 0 mm 1 mps 650 mmHg 52%
04:00 +19°C° 0 mm 1 mps 651 mmHg 50%
05:00 +20°C° 0 mm 1 mps 651 mmHg 48%
06:00 +21°C° 0 mm 1 mps 651 mmHg 46%
07:00 +22°C° 0 mm 1 mps 652 mmHg 41%
08:00 +24°C° 0 mm 2 mps 652 mmHg 37%
09:00 +26°C° 0 mm 2 mps 653 mmHg 33%
10:00 +27°C° 0 mm 3 mps 653 mmHg 30%
11:00 +28°C° 0 mm 4 mps 653 mmHg 28%
12:00 +29°C° 0 mm 5 mps 653 mmHg 26%
13:00 +29°C° 0 mm 5 mps 652 mmHg 26%
14:00 +29°C° 0 mm 6 mps 652 mmHg 26%
15:00 +29°C° 0 mm 6 mps 652 mmHg 27%
16:00 +28°C° 0 mm 6 mps 651 mmHg 30%
17:00 +26°C° 0 mm 6 mps 651 mmHg 33%
18:00 +24°C° 0 mm 6 mps 650 mmHg 36%
19:00 +22°C° 0 mm 5 mps 650 mmHg 40%
20:00 +21°C° 0 mm 4 mps 650 mmHg 44%
21:00 +19°C° 0 mm 3 mps 650 mmHg 48%
22:00 +19°C° 0 mm 3 mps 650 mmHg 50%
23:00 +18°C° 0 mm 3 mps 650 mmHg 53%

16 June, Wednesday

Time Temperature Precipitation Wind Pressure Humidity
00:00 +17°C° 0 mm 3 mps 650 mmHg 56%
01:00 +17°C° 0 mm 2 mps 649 mmHg 57%
02:00 +16°C° 0 mm 2 mps 649 mmHg 58%
03:00 +16°C° 0 mm 2 mps 649 mmHg 58%
04:00 +17°C° 0 mm 2 mps 649 mmHg 57%
05:00 +17°C° 0 mm 2 mps 649 mmHg 55%
06:00 +18°C° 0 mm 2 mps 649 mmHg 54%
07:00 +19°C° 0 mm 2 mps 649 mmHg 49%
08:00 +21°C° 0 mm 3 mps 650 mmHg 44%
09:00 +22°C° 0 mm 3 mps 650 mmHg 40%
10:00 +23°C° 0 mm 4 mps 650 mmHg 37%
11:00 +26°C° 0 mm 4 mps 650 mmHg 35%
12:00 +27°C° 0 mm 5 mps 650 mmHg 32%
13:00 +27°C° 0 mm 6 mps 650 mmHg 34%
14:00 +27°C° 0 mm 6 mps 649 mmHg 35%
15:00 +26°C° 0 mm 7 mps 649 mmHg 36%
16:00 +24°C° 0 mm 6 mps 649 mmHg 39%
17:00 +23°C° 0 mm 6 mps 648 mmHg 42%
18:00 +22°C° 0 mm 5 mps 648 mmHg 46%
19:00 +21°C° 0 mm 4 mps 648 mmHg 51%
20:00 +19°C° 0 mm 3 mps 648 mmHg 57%
21:00 +19°C° 0 mm 1 mps 648 mmHg 63%
22:00 +19°C° 0 mm 1 mps 648 mmHg 62%
23:00 +18°C° 0 mm 2 mps 648 mmHg 62%

17 June, Thursday

Time Temperature Precipitation Wind Pressure Humidity
00:00 +17°C° 0 mm 2 mps 647 mmHg 61%
01:00 +17°C° 0 mm 2 mps 647 mmHg 61%
02:00 +17°C° 0 mm 2 mps 647 mmHg 61%
03:00 +17°C° 0 mm 2 mps 646 mmHg 62%
04:00 +16°C° 0.3 mm 2 mps 647 mmHg 66%
05:00 +16°C° 0.3 mm 3 mps 647 mmHg 71%
06:00 +16°C° 0.3 mm 3 mps 647 mmHg 76%
07:00 +16°C° 0.9 mm 3 mps 647 mmHg 79%
08:00 +16°C° 0.9 mm 2 mps 647 mmHg 82%
09:00 +15°C° 0.9 mm 2 mps 646 mmHg 84%
10:00 +15°C° 1.4 mm 2 mps 646 mmHg 85%
11:00 +14°C° 1.4 mm 2 mps 647 mmHg 86%
12:00 +14°C° 1.4 mm 2 mps 647 mmHg 87%
13:00 +16°C° 0.1 mm 3 mps 647 mmHg 76%
14:00 +18°C° 0.1 mm 4 mps 647 mmHg 65%
15:00 +20°C° 0.1 mm 5 mps 647 mmHg 54%
16:00 +20°C° 0.1 mm 5 mps 647 mmHg 55%
17:00 +20°C° 0.1 mm 4 mps 647 mmHg 55%
18:00 +20°C° 0.1 mm 4 mps 647 mmHg 56%
19:00 +18°C° 0.1 mm 4 mps 647 mmHg 61%
20:00 +17°C° 0.1 mm 3 mps 648 mmHg 66%
21:00 +16°C° 0.1 mm 3 mps 648 mmHg 71%
22:00 +16°C° 0 mm 3 mps 648 mmHg 72%
23:00 +14°C° 0 mm 3 mps 648 mmHg 73%
Show more